Showing default

CHAMRAN-1, 61072

Orbit data source: Space-Track

CHAMRAN-1, 61072 is an Iranian payload satellite in LEO that was launched on Sat, 14 Sep 2024 UTC via a QAEM-100 launch vehicle from the Sharud Missile Test Site (SMTS). Payload-class satellites include a variety of spacecraft equipped with specific instruments for various scientific and technological missions. These include communications satellites like Starlink; space stations such as the ISS; scientific satellites like the Hubble; Earth observation satellites from companies like Planet Labs, Umbra, and HawkEye 360; GPS; miniature CubeSats for education and research; and military/defense satellites.

Loading next visibility...
Identifier
61072, 2024-165B
Orbit
LEO
Country
Flag of IRIR / IRAN
Related business
Manufacturer
IEI
Mission
Operational Defense Communications
Bus & Motor
Unknown
Mass
60 kg wet, 60 kg dry
Launch date (UTC)
2024-09-14 (2 years ago)
Launch vehicle
QAEM-100
Launch site
Sharud Missile Test Site (SMTS)
Object type
Payload
Rocket body
Debris
Shape & HBR
Box, 0.3 m
Radar Cross Section
0.375 m², Medium (>0.1 m² and < 1m²)

Expand to show TLE details & history
Last TLE update: 10 hours ago

TLE from 10 hours ago
0 CHAMRAN-1
1 61072U 24165B   26126.70644619  .00003467  00000-0  21379-3 0  9993
2 61072  64.0750 178.5409 0050307 309.0009  50.6631 15.10764034 90393
Epoch: 2026-05-06T16:57Z
TLE epoch observation values (Epoch: 2026-05-06T16:57:16.950Z)
Latitude
-0.00006°
Longitude
59.65716°
Altitude
513.895 km
Speed
7.619 km/s
True Right ascension
11h 54m 09s
True Declination
0° 00' 00"
Sunlit
Object was in full shadow at epoch
Visualization orbit readout
Latitude
Unknown
Longitude
Unknown
Altitude
Unknown
Speed
Unknown
Apparent Right ascension
Unknown
Apparent Declination
Unknown
Sunlit
N/A
Visualization observer readout
Local Sidereal Time
11:01:43
Azimuth
Unknown
Elevation
Unknown
Doppler factor
Unknown
Orbital elements
Apogee altitude
567.279 km
Perigee altitude
497.749 km
Semi-major axis
6,910.651 km
Eccentricity
0.00503
Inclination
64.075°
RAAN
178.5409°
Arg. of periapsis
309.0009°
True anomaly
51.11074°
Mean anomaly
50.6631°
Eccentric anomaly
50.88674°
Mean motion
3.77802 °/min
Orbital period
95.29 mins
BSTAR
0.00021379
Loading maneuver chart data...
Computing Atmospheric mass density...
Loading historical data...
Loading historical data...
Loading historical data...
Loading historical data...
Loading historical data...
Loading historical data...
Loading historical data...
Other satellites on launch #165 in the year 2024 (2024-09-14 UTC)

Documentation

Showing up to 5 results
|